Location: Lecco
(45.8566°N, 9.3977°E)
Time: 11:54:44
(UTC+02:00)

S-56A Canister/Altair - Pass Details

Date: 22 July 2019
Orbit: 633 x 2499 km, 38.9° (Epoch: 21 August)

Event Time Altitude Azimuth Distance (km) Brightness Sun altitude
Rises 07:12:38 0° 220° (SW) 4,788 11.1 11.7°
Reaches altitude 10° 07:15:40 10° 213° (SSW) 4,041 10.8 12.2°
Maximum altitude 07:26:02 43° 148° (SSE) 2,846 10.8 14.0°
Drops below altitude 10° 07:39:16 10° 85° (E) 5,140 14.2 16.2°
Sets 07:43:40 0° 79° (E) 6,181 14.0 16.9°
